Weather History for LIRA - March, 2013

Change the Weather History Date:

Monday, March 18, 2013

  Actual Average Record
Temperature  
Mean Temperature 52 °F -  
Max Temperature 57 °F 63 °F - (-1)
Min Temperature 46 °F 44 °F - (-1)
Degree Days  
Heating Degree Days 14    
Growing Degree Days 2 (Base 50)    
Moisture  
Dew Point 48 °F    
Average Humidity 87    
Maximum Humidity 100    
Minimum Humidity 71    
Precipitation  
Precipitation 0.00 in 0.09 in - ()
Sea Level Pressure  
Sea Level Pressure 29.56 in    
Wind  
Wind Speed 24 mph ()    
Max Wind Speed 36 mph    
Max Gust Speed 51 mph    
Visibility 5.4 miles    
Events Rain    
Averages and records for this station are not official NWS values.
T = Trace of Precipitation, MM = Missing Value Source: Averaged Metar Reports

Daily Weather History Graph

Daily Weather History Graph

Search for Another Location

Airport or City:

Trip Planner

Search our weather history database for the weather conditions in past years. The results will help you decide how hot, cold, wet, or windy it might be!

Date:

Astronomy

Mar. 18, 2013 Rise Set
Actual Time 6:16 AM CET 6:19 PM CET
Civil Twilight 5:48 AM CET 6:47 PM CET
Nautical Twilight 5:16 AM CET 7:19 PM CET
Astronomical Twilight 4:43 AM CET 7:52 PM CET
Moon 9:57 AM CET (3/18) 12:09 AM CET (3/18)
Length of Visible Light 12h 58m
Length of Day
12h 03m
Waxing Crescent, 38% of the Moon is Illuminated
Mar 18
Waxing Crescent
Mar 19
First Quarter
Mar 27
Full
Apr 3
Last Quarter
Apr 10
New

Hourly Weather History & Observations

Time (CET) Temp. Windchill Dew Point Humidity Pressure Visibility Wind Dir Wind Speed Gust Speed Precip Events Conditions
12:15 AM 48.2 °F - 44.6 °F 87% 29.68 in 6.2 mi SE 31.1 mph 42.6 mph N/A Rain Light Rain
12:45 AM 48.2 °F - 44.6 °F 87% 29.68 in 6.2 mi SE 29.9 mph 42.6 mph N/A Rain Light Rain
1:15 AM 50.0 °F - 44.6 °F 82% 29.71 in 6.2 mi SSE 27.6 mph 41.4 mph N/A Rain Light Rain
1:45 AM 48.2 °F - 46.4 °F 93% 29.71 in 6.2 mi SSE 26.5 mph 42.6 mph N/A Rain Light Rain
2:15 AM 48.2 °F - 46.4 °F 93% 29.65 in 6.2 mi SE 29.9 mph 46.0 mph N/A Rain Light Rain
2:45 AM 48.2 °F - 46.4 °F 93% 29.62 in 6.2 mi SE 27.6 mph 41.4 mph N/A Rain Light Rain
3:15 AM 48.2 °F - 46.4 °F 93% 29.62 in 6.2 mi SE 28.8 mph 41.4 mph N/A Rain Light Rain
3:45 AM 51.8 °F - 46.4 °F 82% 29.59 in 6.2 mi SSE 34.5 mph 50.6 mph N/A Rain Light Rain
4:15 AM 51.8 °F - 46.4 °F 82% 29.59 in 6.2 mi SSE 31.1 mph 47.2 mph N/A   Scattered Clouds
4:45 AM 51.8 °F - 44.6 °F 76% 29.59 in 6.2 mi SE 34.5 mph 50.6 mph N/A   Mostly Cloudy
5:15 AM 53.6 °F - 46.4 °F 77% 29.56 in 6.2 mi SSE 34.5 mph 50.6 mph N/A   Mostly Cloudy
5:45 AM 53.6 °F - 46.4 °F 77% 29.59 in 6.2 mi SSE 29.9 mph 46.0 mph N/A Rain Light Rain
6:15 AM 51.8 °F - 48.2 °F 88% 29.59 in 6.2 mi SSE 32.2 mph 48.3 mph N/A Rain Light Rain
6:45 AM 51.8 °F - 48.2 °F 88% 29.56 in 5.0 mi SSE 35.7 mph 50.6 mph N/A Rain Light Rain
7:15 AM 51.8 °F - 48.2 °F 88% 29.59 in 4.3 mi SSE 31.1 mph 46.0 mph N/A Rain Light Rain
7:45 AM 51.8 °F - 50.0 °F 94% 29.56 in 5.0 mi SE 34.5 mph 47.2 mph N/A Rain Light Rain
8:15 AM 51.8 °F - 50.0 °F 94% 29.56 in 6.2 mi SSE 28.8 mph 46.0 mph N/A Rain Light Rain
8:45 AM 53.6 °F - 51.8 °F 94% 29.56 in 6.2 mi SSE 32.2 mph 47.2 mph N/A   Mostly Cloudy
9:15 AM 55.4 °F - 51.8 °F 88% 29.56 in 6.2 mi SSE 34.5 mph 48.3 mph N/A Rain Light Rain
9:45 AM 55.4 °F - 51.8 °F 88% 29.53 in 6.2 mi SSE 33.4 mph 49.5 mph N/A Rain Light Rain
10:15 AM 57.2 °F - 51.8 °F 82% 29.50 in 6.2 mi SSE 32.2 mph 44.9 mph N/A Rain Light Rain
10:45 AM 57.2 °F - 51.8 °F 82% 29.53 in 6.2 mi SSE 27.6 mph 46.0 mph N/A Rain Light Rain
11:15 AM 55.4 °F - 53.6 °F 94% 29.53 in 3.7 mi SSE 27.6 mph - N/A Rain Light Rain
11:45 AM 53.6 °F - 51.8 °F 94% 29.53 in 3.1 mi SSE 27.6 mph - N/A Rain Rain
12:15 PM 53.6 °F - 51.8 °F 94% 29.50 in 3.7 mi SSE 28.8 mph 42.6 mph N/A Rain Rain
12:45 PM 53.6 °F - 51.8 °F 94% 29.47 in 3.1 mi SE 31.1 mph - N/A Rain Rain
1:15 PM 53.6 °F - 51.8 °F 94% 29.47 in 3.1 mi SSE 24.2 mph 36.8 mph N/A Rain Rain
1:45 PM 53.6 °F - 51.8 °F 94% 29.44 in 3.1 mi SSE 33.4 mph 48.3 mph N/A Rain Light Rain
2:15 PM 53.6 °F - 51.8 °F 94% 29.47 in 3.1 mi SSE 28.8 mph - N/A Rain Light Rain
2:45 PM 53.6 °F - 53.6 °F 100% 29.47 in 3.1 mi SSE 25.3 mph - N/A Rain Light Rain
3:15 PM 53.6 °F - 53.6 °F 100% 29.47 in 5.0 mi SSE 23.0 mph - N/A Rain Light Rain
3:45 PM 53.6 °F - 53.6 °F 100% 29.47 in 4.3 mi South 17.3 mph - N/A Rain Light Rain
4:15 PM 53.6 °F - 53.6 °F 100% 29.47 in 4.3 mi South 16.1 mph 27.6 mph N/A Rain Light Rain
4:45 PM 55.4 °F - 53.6 °F 94% 29.50 in 2.5 mi SSW 15.0 mph - N/A Rain Light Rain
5:15 PM 53.6 °F - 50.0 °F 88% 29.50 in 6.2 mi SW 13.8 mph 25.3 mph N/A   Scattered Clouds
5:45 PM 53.6 °F - 48.2 °F 82% 29.50 in 6.2 mi SSW 9.2 mph - N/A   Partly Cloudy
6:15 PM 51.8 °F - 44.6 °F 76% 29.53 in 6.2 mi SSW 12.7 mph 25.3 mph N/A   Partly Cloudy
6:45 PM 51.8 °F - 42.8 °F 71% 29.53 in 6.2 mi SSW 12.7 mph 24.2 mph N/A   Scattered Clouds
7:15 PM 51.8 °F - 42.8 °F 71% 29.53 in 6.2 mi SW 17.3 mph 31.1 mph N/A   Scattered Clouds
7:45 PM 50.0 °F - 42.8 °F 76% 29.56 in 6.2 mi WSW 9.2 mph - N/A   Scattered Clouds
8:15 PM 50.0 °F - 44.6 °F 82% 29.56 in 6.2 mi SW 9.2 mph - N/A   Scattered Clouds
8:45 PM 50.0 °F - 42.8 °F 76% 29.59 in 6.2 mi SW 9.2 mph - N/A   Partly Cloudy
9:15 PM 50.0 °F - 42.8 °F 76% 29.59 in 6.2 mi SSW 4.6 mph - N/A   Partly Cloudy
9:45 PM 48.2 °F - 42.8 °F 82% 29.59 in 6.2 mi SW 4.6 mph - N/A   Partly Cloudy
10:15 PM 48.2 °F - 42.8 °F 82% 29.59 in 6.2 mi SW 6.9 mph - N/A   Partly Cloudy
10:45 PM 48.2 °F - 42.8 °F 82% 29.62 in 6.2 mi South 5.8 mph - N/A   Partly Cloudy
11:15 PM 46.4 °F 44.3 °F 42.8 °F 87% 29.62 in 6.2 mi South 4.6 mph - N/A   Partly Cloudy
11:45 PM 46.4 °F 43.5 °F 44.6 °F 93% 29.65 in 6.2 mi South 5.8 mph - N/A   Partly Cloudy